Hatteras, NC

7:54 PM EDT on May 24, 2018 (GMT -0400)
Mitchell

Weather History for KHSE - January, 2014

Change the Weather History Date:

Sunday, January 19, 2014

  Actual Average Record
Temperature  
Mean Temperature 44 °F 45 °F  
Max Temperature 53 °F 52 °F 74 °F (1987)
Min Temperature 35 °F 39 °F 17 °F (1994)
Degree Days  
Heating Degree Days 21 20  
Month to date heating degree days 308 373  
Since 1 July heating degree days 1010 1180  
Cooling Degree Days 0 0  
Month to date cooling degree days 0 0  
Year to date cooling degree days 0 0  
Moisture  
Dew Point 29 °F    
Average Humidity 58    
Maximum Humidity 76    
Minimum Humidity 40    
Precipitation  
Precipitation 0.00 in 0.17 in 2.77 in (1986)
Month to date precipitation 4.10 3.23  
Year to date precipitation 4.10 3.23  
Snow  
Snow 0.00 in - - ()
Month to date snowfall T  
Since 1 July snowfall T  
Snow Depth 0.00 in    
Sea Level Pressure  
Sea Level Pressure 29.99 in    
Wind  
Wind Speed 11 mph (West)    
Max Wind Speed 21 mph    
Max Gust Speed 31 mph    
Visibility 10 miles    
Events      
T = Trace of Precipitation, MM = Missing Value Source: NWS Daily Summary

Daily Weather History Graph

Daily Weather History Graph

Search for Another Location

Airport or City:

Astronomy

Jan. 19, 2014 Rise Set
Actual Time 7:09 AM EST 5:17 PM EST
Civil Twilight 6:41 AM EST 5:44 PM EST
Nautical Twilight 6:10 AM EST 6:15 PM EST
Astronomical Twilight 5:40 AM EST 6:46 PM EST
Moon 8:43 PM EST (1/19) 8:46 AM EST (1/19)
Length of Visible Light 11h 03m
Length of Day
10h 08m
Waning Gibbous, 89% of the Moon is Illuminated
Jan 19
Waning Gibbous
Jan 24
Last Quarter
Jan 30
New
Feb 6
First Quarter
Feb 14
Full

Hourly Weather History & Observations

Time (EST) Temp. Windchill Dew Point Humidity Pressure Visibility Wind Dir Wind Speed Gust Speed Precip Events Conditions
12:51 AM 35.1 °F 29.3 °F 17.1 °F 48% 30.06 in 10.0 mi WNW 6.9 mph - N/A   Clear
1:51 AM 37.0 °F 31.0 °F 19.0 °F 48% 30.06 in 10.0 mi West 8.1 mph 17.3 mph N/A   Clear
2:51 AM 37.9 °F 31.5 °F 19.9 °F 48% 30.07 in 10.0 mi West 9.2 mph 18.4 mph N/A   Clear
3:51 AM 36.0 °F 29.0 °F 21.9 °F 57% 30.06 in 10.0 mi West 9.2 mph - N/A   Clear
4:51 AM 37.0 °F 31.0 °F 19.9 °F 50% 30.04 in 10.0 mi West 8.1 mph - N/A   Clear
5:51 AM 37.9 °F 31.5 °F 21.9 °F 53% 30.04 in 10.0 mi West 9.2 mph - N/A   Clear
6:51 AM 41.0 °F 35.2 °F 21.9 °F 47% 30.03 in 10.0 mi West 9.2 mph 17.3 mph N/A   Clear
7:51 AM 44.1 °F 38.6 °F 23.0 °F 43% 30.03 in 10.0 mi West 10.4 mph - N/A   Clear
8:51 AM 46.9 °F - 24.1 °F 41% 30.03 in 10.0 mi WSW 17.3 mph 25.3 mph N/A   Clear
9:51 AM 48.9 °F - 26.1 °F 41% 30.03 in 10.0 mi WSW 13.8 mph 24.2 mph N/A   Overcast
10:51 AM 52.0 °F - 32.0 °F 47% 30.01 in 10.0 mi WSW 16.1 mph 27.6 mph N/A   Mostly Cloudy
11:51 AM 52.0 °F - 28.9 °F 41% 29.98 in 10.0 mi WSW 17.3 mph 27.6 mph N/A   Overcast
12:51 PM 52.0 °F - 35.1 °F 53% 29.93 in 10.0 mi WSW 16.1 mph 26.5 mph N/A   Overcast
1:51 PM 50.0 °F - 36.0 °F 59% 29.92 in 10.0 mi West 9.2 mph - N/A   Overcast
2:51 PM 51.1 °F - 36.0 °F 56% 29.91 in 10.0 mi West 5.8 mph - N/A   Clear
3:51 PM 50.0 °F - 36.0 °F 59% 29.90 in 10.0 mi West 8.1 mph - N/A   Clear
4:51 PM 48.9 °F - 36.0 °F 61% 29.91 in 10.0 mi West 10.4 mph 19.6 mph N/A   Clear
5:51 PM 46.9 °F - 37.9 °F 71% 29.92 in 10.0 mi West 10.4 mph 18.4 mph N/A   Clear
6:51 PM 46.0 °F 41.0 °F 37.0 °F 71% 29.95 in 10.0 mi West 10.4 mph - N/A   Clear
7:51 PM 46.0 °F 41.9 °F 36.0 °F 68% 29.96 in 10.0 mi West 8.1 mph - N/A   Clear
8:51 PM 45.0 °F 40.6 °F 37.0 °F 74% 29.96 in 10.0 mi West 8.1 mph - N/A   Clear
9:51 PM 46.9 °F - 32.0 °F 56% 29.96 in 10.0 mi West 10.4 mph - N/A   Clear
10:51 PM 48.0 °F - 30.0 °F 50% 29.96 in 10.0 mi West 11.5 mph 19.6 mph N/A   Clear
11:51 PM 46.9 °F - 30.9 °F 54% 29.96 in 10.0 mi West 9.2 mph - N/A   Clear